TimeAST,TemperatureF,Dew PointF,Humidity,Sea Level PressureIn,VisibilityMPH,Wind Direction,Wind SpeedMPH,Gust SpeedMPH,PrecipitationIn,Events,Conditions,WindDirDegrees,DateUTC
12:56 AM,73.0,64.9,76,29.99,10.0,Calm,Calm,-,N/A,,Clear,0,2013-02-04 04:56:00
1:56 AM,72.0,66.0,81,29.95,10.0,SE,3.5,-,N/A,,Clear,130,2013-02-04 05:56:00
2:56 AM,71.1,64.0,78,29.94,10.0,South,3.5,-,N/A,,Clear,170,2013-02-04 06:56:00
3:56 AM,71.1,64.9,81,29.93,10.0,Calm,Calm,-,N/A,,Clear,0,2013-02-04 07:56:00
4:56 AM,72.0,64.9,78,29.94,10.0,SSW,3.5,-,N/A,,Partly Cloudy,210,2013-02-04 08:56:00
6:56 AM,72.0,64.9,78,29.98,10.0,Calm,Calm,-,N/A,,Partly Cloudy,0,2013-02-04 10:56:00
7:56 AM,72.0,64.9,78,30.01,10.0,Calm,Calm,-,N/A,,Partly Cloudy,0,2013-02-04 11:56:00
8:56 AM,77.0,66.0,69,30.02,10.0,SSE,3.5,-,N/A,,Partly Cloudy,150,2013-02-04 12:56:00
9:56 AM,80.1,66.0,62,30.04,10.0,Variable,5.8,-,N/A,,Partly Cloudy,0,2013-02-04 13:56:00
10:56 AM,78.1,66.0,66,30.04,10.0,ENE,10.4,-,N/A,,Scattered Clouds,70,2013-02-04 14:56:00
11:56 AM,78.1,66.9,68,30.03,10.0,NE,8.1,-,0.00,,Scattered Clouds,50,2013-02-04 15:56:00
12:56 PM,79.0,64.9,62,30.00,10.0,NE,13.8,-,N/A,,Scattered Clouds,50,2013-02-04 16:56:00
1:56 PM,82.0,64.9,56,29.97,10.0,East,12.7,-,N/A,,Scattered Clouds,80,2013-02-04 17:56:00
2:56 PM,82.0,63.0,52,29.96,10.0,ENE,16.1,24.2,N/A,,Scattered Clouds,70,2013-02-04 18:56:00
3:56 PM,81.0,64.0,56,29.95,10.0,East,16.1,21.9,N/A,,Scattered Clouds,80,2013-02-04 19:56:00
4:56 PM,80.1,63.0,56,29.95,10.0,East,15.0,-,N/A,,Partly Cloudy,80,2013-02-04 20:56:00
5:56 PM,77.0,61.0,58,29.96,10.0,East,11.5,-,N/A,,Scattered Clouds,80,2013-02-04 21:56:00
6:56 PM,75.0,61.0,62,29.98,10.0,East,8.1,-,N/A,,Partly Cloudy,90,2013-02-04 22:56:00
7:56 PM,75.9,61.0,60,30.00,10.0,ESE,3.5,-,N/A,,Partly Cloudy,120,2013-02-04 23:56:00
8:56 PM,75.0,61.0,62,30.02,10.0,Calm,Calm,-,N/A,,Clear,0,2013-02-05 00:56:00
9:56 PM,73.9,62.1,66,30.03,10.0,Calm,Calm,-,N/A,,Clear,0,2013-02-05 01:56:00
10:56 PM,73.9,62.1,66,30.03,10.0,Calm,Calm,-,N/A,,Clear,0,2013-02-05 02:56:00
11:56 PM,73.9,64.0,71,30.02,10.0,Calm,Calm,-,N/A,,Partly Cloudy,0,2013-02-05 03:56:00